SCP
1 1 1 0 0 0 -0 -0 -0 -0 -0 0 0 0 0 0 0 0 0 0 0 0 0 0 0 0 0 0 0 0 0 0 0 0 0 0 0 0 0 0 0 0 0 0 0 0 0 0 0
1 1 1 0 0 0 0 -0 -0 -0 -0 -0 0 0 0 0 0 0 0 0 0 0 0 0 0 0 0 0 0 0 0 0 0 0 0 0 -0 -0 0 0 0 0 0 0 0 0 0 0 0
0 0 0 0 0 0 0 -0 -0 -0 -0 -0 -0 -0 0 0 0 0 0 0 0 0 0 0 0 0 0 0 0 0 0 0 0 0 0 -0 -0 -0 -0 -0 -0 0 0 0 0 0 0 0 0
0 0 0 0 0 0 0 -0 0 0 -0 -0 -0 -0 0 0 0 0 0 0 0 0 0 0 0 0 0 0 0 0 0 0 0 0 0 0 -0 -0 -0 -0 -0 0 0 0 0 0 0 0 0
0 0 0 0 0 0 0 0 0 0 0 0 -0 -0 0 0 0 0 0 0 0 0 0 0 0 0 0 0 0 0 0 0 0 0 0 0 0 -0 -0 -0 -0 0 0 0 0 0 0 0 0
0 0 0 0 0 0 0 0 0 0 0 0 0 0 0 0 0 0 0 0 0 0 0 0 0 0 0 0 0 0 0 0 0 0 0 0 0 0 0 0 0 0 0 0 0 0 0 0 0
0 0 0 0 0 0 0 0 0 0 0 0 0 0 0 0 0 0 0 0 0 0 0 0 0 0 0 0 0 0 0 0 0 0 0 0 0 0 0 0 0 0 0 0 0 0 0 0 0
0 0 0 0 0 0 0 0 0 0 0 0 0 0 0 0 0 0 0 0 0 0 0 0 0 0 0 0 0 0 0 0 0 0 0 0 0 0 0 0 0 0 0 0 0 0 0 0 0
0 0 0 0 0 0 0 0 0 0 0 0 0 0 0 0 0 0 0 0 0 0 0 0 0 0 0 0 0 0 0 0 0 0 0 0 0 0 0 0 0 0 0 0 0 0 0 0 0
0 0 0 0 0 0 0 0 0 0 0 0 0 0 0 0 0 0 0 0 0 0 0 0 0 0 0 0 0 0 0 0 0 0 0 0 0 0 0 0 0 0 0 0 0 0 0 0 0
0 0 0 0 0 0 0 0 0 0 0 0 0 0 0 0 0 0 0 0 0 0 0 0 0 0 0 0 0 0 0 0 0 0 0 0 0 0 0 0 0 0 0 0 0 0 0 0 0
0 0 0 0 0 0 0 0 0 0 0 0 0 0 0 0 0 0 0 0 0 0 0 0 0 0 0 0 0 0 0 0 0 0 0 0 0 0 0 0 0 0 0 0 0 0 0 0 0
0 0 0 0 0 0 0 0 0 0 0 0 0 0 0 0 0 0 0 0 0 0 0 0 0 0 0 0 0 0 0 0 0 0 0 0 0 0 0 0 0 0 0 0 0 0 0 0 0
0 0 0 0 0 0 0 0 0 0 0 0 0 0 0 0 0 0 0 0 0 0 0 0 0 0 0 0 0 1 1 1 1 1 0 0 0 0 0 0 0 0 0 0 0 0 0 0 0
0 0 0 0 0 0 0 0 0 0 0 0 0 0 0 0 0 0 0 0 0 0 0 0 0 0 0 0 0 1 1 1 1 1 1 0 0 0 0 0 0 0 0 0 0 0 0 0 0
0 0 0 0 0 0 0 0 0 0 0 0 0 0 0 0 0 0 0 0 0 0 0 0 0 0 0 0 0 1 1 1 1 1 1 1 0 0 0 1 0 0 0 0 0 0 0 0 0
0 0 0 0 0 0 0 0 0 0 0 0 0 0 0 0 0 0 0 0 0 0 0 0 0 0 0 0 0 0 1 1 1 1 1 1 1 1 1 1 1 0 0 0 0 0 0 0 0
0 0 0 0 0 0 0 0 0 0 0 0 0 0 0 0 0 0 0 0 0 0 0 0 0 0 0 0 0 1 1 1 1 1 1 1 1 1 1 1 1 1 1 0 0 0 0 0 0
0 0 0 0 0 0 0 0 0 0 0 0 0 0 0 0 0 0 0 0 0 0 0 0 0 0 0 0 0 0 1 1 1 1 1 1 1 1 1 1 1 1 1 1 0 0 0 0 0
0 0 0 0 0 0 0 0 0 0 0 0 0 0 0 0 0 0 0 0 0 0 0 0 0 0 0 0 0 0 1 1 1 1 1 1 1 1 1 1 1 1 1 1 0 0 0 0 0
0 0 0 0 0 0 0 0 0 0 0 0 0 0 0 0 0 0 0 0 0 0 0 0 0 0 0 0 0 0 1 1 1 1 1 1 1 1 1 1 1 1 1 1 0 0 0 0 0
0 0 0 0 0 0 0 0 0 0 0 0 0 0 0 0 0 0 0 0 0 0 0 0 0 0 0 0 0 0 0 1 1 1 1 1 1 1 1 1 1 1 1 1 1 0 0 0 0
0 0 0 0 0 0 0 0 0 0 0 0 0 0 0 0 0 0 0 0 0 0 0 0 0 0 0 0 0 0 0 0 0 1 1 1 1 1 1 1 1 1 1 1 1 1 0 0 0
0 0 0 0 0 0 0 0 0 0 0 0 0 0 0 0 0 0 0 0 0 0 0 0 0 0 0 0 0 0 0 0 0 0 1 1 1 1 1 1 1 1 1 1 1 1 0 0 0
0 0 0 0 0 0 0 0 0 0 0 0 0 0 0 0 0 0 0 0 0 0 0 0 0 0 0 0 0 0 0 0 0 0 0 0 1 1 1 1 1 1 1 1 1 1 0 0 0
0 0 0 0 0 0 0 0 0 0 0 0 0 0 0 0 0 0 0 0 0 0 0 0 0 0 0 0 0 0 0 0 0 0 0 0 0 1 1 1 1 1 1 1 1 1 1 0 0
0 0 0 0 0 0 0 0 0 0 0 0 0 0 0 0 0 0 0 0 0 0 0 0 0 0 0 0 0 0 0 0 0 0 0 0 0 0 0 0 0 1 1 1 1 1 1 0 0
0 0 0 0 0 0 0 0 0 0 0 0 0 0 0 0 0 0 0 0 0 0 0 0 0 0 0 0 0 0 0 0 0 0 0 0 0 0 0 0 0 0 0 0 0 0 0 0 0
0 0 0 0 0 0 0 0 0 0 0 0 0 0 0 0 0 0 0 0 0 0 0 0 0 0 0 0 0 0 0 0 0 0 0 0 0 0 0 0 0 0 0 0 0 0 0 0 0
0 0 0 0 0 0 0 0 0 0 0 0 0 0 0 0 0 0 0 0 0 0 0 0 0 0 0 0 0 0 0 0 0 0 0 0 0 0 0 0 0 0 0 0 0 0 0 0 0
Wind_Speed
8 7 5 4 4 6 12 9 8 7 6 6 5 3 4 7 6 7 5 9 11 13 13 14 12 12 11 10 10 9 9 9 8 8 8 7 6 6 5 5 4 3 3 3 3 3 3 3 3
6 6 5 4 2 9 12 9 10 9 7 4 5 4 6 8 7 6 7 9 12 13 12 12 13 12 11 10 10 9 9 9 8 8 7 7 6 6 5 4 4 3 3 3 3 3 3 3 3
7 5 4 0 8 10 11 9 8 8 7 5 5 6 6 7 5 5 7 11 12 11 10 12 11 11 10 10 9 9 9 9 8 8 7 6 6 5 5 4 3 3 3 3 3 3 3 3 3
4 4 3 4 11 10 8 8 6 7 8 8 5 7 8 8 5 6 10 11 11 10 9 11 10 10 10 9 9 9 9 8 8 7 7 6 6 5 5 4 3 3 2 2 2 2 2 2 3
4 3 4 8 10 9 8 8 8 10 8 9 7 9 9 9 8 9 9 9 9 9 8 10 9 8 9 8 9 9 8 8 8 8 7 7 6 5 5 4 4 3 2 2 2 1 2 2 2
3 3 4 7 9 8 9 8 8 11 10 9 7 8 9 7 7 7 7 6 7 7 7 8 10 7 7 8 8 8 8 9 9 8 8 7 7 6 5 4 4 3 2 2 2 1 1 1 2
2 1 5 7 7 7 8 7 11 10 12 12 7 6 8 8 6 5 5 4 4 5 5 6 8 10 9 8 8 8 9 9 9 9 9 8 8 7 6 5 5 4 3 3 2 2 1 1 2
2 2 5 4 5 6 6 7 9 12 11 10 10 7 6 6 4 5 4 3 2 2 3 4 4 5 7 9 10 9 10 10 10 10 10 9 9 8 8 8 6 5 4 4 3 2 2 2 2
3 2 4 3 3 6 6 8 9 10 13 14 12 11 8 7 5 5 5 4 3 2 3 4 5 6 6 6 6 9 10 10 10 11 12 11 9 10 9 8 6 6 5 5 4 3 3 4 5
1 2 5 5 5 8 12 11 7 8 13 13 13 12 10 9 8 8 8 7 6 5 5 4 6 6 7 6 6 6 7 8 9 9 10 9 8 6 6 7 6 7 6 6 5 4 6 9 7
5 6 7 7 8 8 10 14 14 8 12 12 11 11 10 10 10 10 9 8 7 7 7 7 7 7 7 5 6 5 4 5 7 9 8 7 7 5 6 5 8 9 9 8 8 8 8 7 4
8 10 7 7 7 8 9 9 13 17 10 9 10 10 11 11 11 10 9 9 8 8 8 8 8 7 7 7 6 6 5 5 6 7 9 6 5 6 6 5 5 5 5 5 6 5 6 6 7
10 10 13 16 18 17 17 15 14 14 10 9 9 11 12 11 10 9 9 8 8 8 8 9 9 8 8 7 6 7 6 7 7 6 7 9 7 7 7 6 5 6 5 6 6 6 7 7 7
11 13 12 11 11 11 16 13 9 10 9 9 10 12 12 11 11 11 11 10 10 10 9 9 9 8 8 7 7 7 7 7 7 7 9 10 8 8 7 7 6 7 6 6 6 8 6 6 6
13 13 11 7 6 5 5 12 10 9 7 9 11 11 11 11 11 12 12 11 11 11 11 10 10 9 9 9 8 7 7 7 7 7 9 10 10 10 8 7 7 7 8 8 7 8 7 6 6
7 6 5 7 4 2 1 7 9 8 8 10 10 10 10 11 12 12 12 12 11 11 11 11 9 10 10 9 9 7 7 8 7 7 7 10 10 10 8 7 7 7 6 6 6 6 7 7 7
6 4 4 6 7 3 5 8 7 7 8 10 10 10 11 11 13 13 13 12 12 11 11 11 11 11 10 10 8 8 8 8 7 7 7 8 10 10 8 7 6 7 6 6 7 7 7 7 7
2 2 3 5 7 8 10 9 7 8 9 10 10 11 12 13 13 13 13 13 12 12 12 12 12 11 11 9 8 6 7 7 7 7 7 9 8 9 8 7 8 7 6 6 7 8 7 6 6
1 1 4 6 4 5 9 9 7 8 9 10 11 12 13 13 13 13 13 13 13 13 13 12 12 12 10 8 7 7 6 6 6 7 9 9 9 9 9 7 8 7 7 7 8 7 8 7 7
2 3 5 7 4 3 7 7 6 7 9 10 11 12 13 14 14 14 14 13 14 14 14 13 13 12 11 8 8 7 8 7 6 6 7 9 10 10 9 10 8 7 6 7 7 7 5 6 7
2 1 3 5 6 5 5 6 5 5 6 8 10 10 12 13 14 14 14 14 14 14 14 12 13 13 12 12 8 7 6 6 5 5 5 7 9 10 9 10 9 8 8 7 8 8 8 7 7
2 3 2 6 7 4 5 3 5 3 5 9 10 11 12 13 13 13 14 14 14 14 13 13 13 13 12 11 9 10 7 7 6 5 4 5 7 8 9 9 10 9 8 9 9 9 7 8 7
4 1 2 5 4 4 3 6 5 2 6 9 10 11 12 12 12 13 13 13 13 14 13 13 14 13 13 12 10 9 8 7 6 5 5 4 4 6 7 8 9 9 8 10 10 10 10 8 8
2 5 5 5 6 4 1 5 3 5 8 9 10 11 11 12 12 13 13 13 13 13 13 13 14 14 13 12 11 9 10 9 7 6 5 3 3 3 5 6 7 8 8 9 10 10 11 9 9
3 5 4 5 5 1 2 2 4 4 5 7 9 10 11 11 12 12 14 14 14 14 14 14 15 14 14 13 11 10 9 9 7 7 5 4 3 2 3 5 5 6 7 8 9 10 11 11 11
1 5 5 5 3 2 2 1 4 2 3 5 6 8 9 11 11 12 13 13 13 13 13 14 14 14 14 13 11 10 9 6 5 6 6 5 3 3 3 4 5 6 6 7 8 7 9 9 10
1 1 4 4 2 2 2 2 3 1 2 4 6 7 9 10 11 12 12 12 13 13 13 13 13 13 14 13 12 10 10 9 8 7 6 4 4 3 2 2 3 4 5 6 7 7 8 8 9
5 2 3 4 4 2 2 1 2 2 4 5 7 8 9 10 11 11 11 11 11 11 11 12 13 13 13 13 11 9 9 9 8 7 7 6 5 4 3 2 2 2 3 5 6 6 7 8 7
1 1 1 1 4 5 2 3 3 2 4 6 7 8 9 10 10 10 10 10 10 11 11 11 12 12 12 12 11 11 9 9 9 8 8 7 6 5 4 3 1 0 1 2 4 5 6 7 7
2 3 3 3 1 2 2 3 4 1 3 4 6 6 7 8 9 10 10 10 10 11 11 11 11 12 12 11 11 10 10 10 10 9 9 7 6 6 6 5 4 3 2 1 1 4 5 6 7
Wind_Direction
183 179 190 219 214 87 68 60 52 52 58 57 58 47 44 36 10 50 99 147 141 146 144 150 152 150 148 147 146 144 141 140 140 141 142 144 146 147 144 142 140 137 133 128 128 129 126 132 134
168 169 211 238 84 81 70 56 53 48 63 71 69 57 64 60 45 80 130 140 148 148 150 150 149 154 153 153 153 152 150 148 147 148 148 150 153 153 151 151 149 148 140 133 127 124 119 116 109
167 210 254 98 64 62 65 49 54 67 58 48 70 53 45 45 60 100 128 146 152 149 152 140 155 157 158 158 158 159 158 156 154 154 154 156 158 156 155 155 154 149 141 129 122 120 119 110 106
191 216 228 91 79 63 49 50 48 69 62 46 63 78 70 44 42 96 131 150 151 152 155 144 162 161 163 164 164 166 165 163 162 162 163 163 163 164 166 169 169 160 147 130 116 119 122 121 118
234 239 128 96 83 72 57 44 53 60 57 48 57 82 76 51 66 105 133 148 154 156 157 151 162 169 172 174 174 175 174 174 174 176 176 175 176 176 177 180 175 175 167 145 125 131 140 127 123
233 226 119 95 89 78 63 50 57 60 62 51 50 79 75 66 80 109 127 150 153 155 163 157 160 180 185 187 188 187 188 188 188 188 189 187 188 188 188 188 184 184 182 167 154 146 147 139 133
269 125 103 106 101 78 44 44 46 54 52 38 22 75 90 66 65 101 120 136 145 159 180 190 178 184 192 203 207 205 203 202 201 199 198 198 197 198 199 197 196 196 196 189 172 155 146 150 161
300 151 124 109 104 71 44 66 50 43 51 39 26 46 71 67 72 86 90 93 117 177 207 224 216 223 212 202 204 215 217 215 212 210 207 204 203 205 206 209 194 204 203 198 190 182 173 172 171
264 173 115 90 87 70 50 76 65 61 67 57 48 44 56 74 78 76 73 65 47 349 297 278 266 251 251 246 216 214 221 224 221 216 212 212 217 209 200 206 173 209 212 203 197 197 191 194 175
331 104 76 61 82 92 66 55 44 67 53 41 43 47 54 57 54 50 41 29 19 0 335 311 289 275 262 256 246 236 231 223 225 225 213 218 226 223 227 141 190 217 217 206 201 201 206 226 194
55 76 97 85 94 101 91 65 38 60 46 25 24 35 44 48 43 37 32 22 9 356 350 333 319 301 288 267 258 246 244 236 238 240 231 226 231 224 221 201 190 205 209 211 182 204 217 218 204
90 66 74 75 76 76 80 83 62 51 47 33 38 41 43 41 36 28 20 12 1 355 349 335 325 309 290 274 261 254 249 244 239 236 239 230 231 235 226 222 216 210 208 215 215 221 209 223 205
101 95 83 86 86 85 87 83 77 51 45 47 50 48 42 36 31 24 14 6 358 353 345 337 326 316 301 286 270 259 254 254 250 239 239 231 228 233 227 224 218 225 221 210 220 221 209 215 216
107 110 102 93 92 85 83 75 63 37 32 44 45 43 36 30 21 15 9 360 354 348 341 335 327 319 309 293 272 262 257 248 254 246 240 236 231 232 230 229 221 224 223 222 218 219 212 216 211
127 119 103 73 95 118 101 65 46 27 29 39 38 38 32 27 20 15 6 355 350 344 339 338 330 325 317 305 290 272 261 254 247 244 243 239 237 237 232 234 224 221 218 216 219 218 218 214 207
169 171 127 64 41 55 211 73 42 27 33 38 32 31 26 24 17 13 4 357 352 345 340 338 331 327 320 312 300 282 264 254 247 243 240 237 234 236 237 231 232 230 220 216 210 220 217 209 212
203 213 137 95 39 70 88 89 55 35 36 38 30 25 21 19 14 10 2 357 351 345 340 337 335 330 326 318 303 289 277 262 252 241 239 238 232 229 228 226 228 229 222 217 216 209 219 215 215
228 210 124 96 64 91 99 99 71 46 37 33 26 22 19 15 9 4 360 355 349 348 345 342 337 335 331 321 313 300 283 270 257 246 236 234 233 228 224 222 223 219 218 218 217 213 216 227 219
6 182 117 101 109 94 104 101 75 50 38 28 23 17 13 8 5 5 360 356 353 352 349 346 341 340 335 328 321 311 298 284 265 251 240 232 229 226 223 222 219 213 214 217 217 210 214 220 220
144 160 125 120 128 135 125 106 85 54 41 29 19 14 10 2 1 4 359 357 355 353 349 345 344 340 337 329 316 303 299 288 274 264 249 236 230 226 224 217 213 208 208 210 217 212 211 215 217
82 344 153 146 143 160 178 160 105 72 45 34 24 16 10 4 358 1 359 358 355 354 351 346 345 342 339 333 322 314 305 291 281 271 256 244 233 226 220 217 211 205 203 207 209 209 213 216 218
109 48 164 172 195 167 241 244 109 53 36 28 20 15 9 4 359 1 358 357 355 355 351 348 345 343 342 336 330 324 312 302 296 291 277 256 239 228 219 214 212 206 202 205 207 206 212 216 216
53 72 193 202 228 208 213 274 105 53 17 17 11 8 5 1 358 358 358 354 354 356 353 350 347 346 346 341 336 329 323 312 306 303 291 273 250 233 223 218 214 209 204 205 205 205 207 212 217
139 161 155 193 228 234 20 292 74 35 4 357 359 1 360 358 357 355 355 354 356 357 355 351 349 348 346 345 342 340 335 329 322 316 307 297 268 238 223 216 218 214 208 205 205 208 210 211 216
235 242 224 209 213 96 60 291 55 34 359 346 345 350 353 355 356 355 354 354 355 356 355 353 352 350 348 347 345 344 343 333 329 325 313 303 289 264 234 215 213 213 210 208 209 208 209 211 212
5 300 313 314 334 99 168 333 77 39 344 337 342 348 353 357 357 356 355 353 353 355 355 354 353 351 350 350 348 347 347 340 336 332 327 318 308 286 263 228 218 217 212 211 210 212 211 210 211
278 26 343 302 292 259 127 132 151 193 326 343 350 353 356 356 354 352 352 354 355 355 355 355 354 352 353 353 352 353 352 353 349 342 338 333 325 313 292 251 224 215 213 212 210 213 211 210 210
20 19 252 279 301 300 141 143 42 17 353 349 350 352 353 351 351 352 352 353 355 354 355 356 357 355 355 356 357 358 356 357 356 355 356 353 346 341 321 287 236 210 206 209 208 210 206 204 205
132 142 4 330 326 315 326 92 61 4 347 341 348 351 350 349 351 352 353 354 356 358 0 359 358 357 358 357 358 360 1 3 3 4 3 3 360 0 357 348 342 40 183 201 208 207 202 201 201
0 14 303 306 75 315 304 92 113 295 327 330 338 345 347 349 351 352 354 356 359 2 3 2 0 360 360 359 1 4 6 8 8 9 8 12 18 20 19 23 40 46 47 56 196 191 192 194 192